This is the latest recevied weather packets stored in our database for station/object M0JUI-1. If no packets are shown the sender has not sent any weather packets the latest 10 day(s).
| Time | Temp. | Humidity | Pressure | Rain* | Wind** | Luminosity | Snow |
|---|---|---|---|---|---|---|---|
| 1778242047 | 17.22° C | 79% | 1017 hPa | 0 mm | - | 325 W/m² | - |
| 1778241748 | 17.22° C | 77% | 1017 hPa | 0 mm | - | 352 W/m² | - |
| 1778241447 | 17.22° C | 77% | 1016.8 hPa | 0 mm | - | 232 W/m² | - |
| 1778241145 | 17.22° C | 78% | 1016.8 hPa | 0 mm | - | 332 W/m² | - |
| 1778240847 | 16.67° C | 79% | 1017 hPa | 0 mm | - | 451 W/m² | - |
| 1778240547 | 16.67° C | 79% | 1016.9 hPa | 0 mm | - | 411 W/m² | - |
| 1778240247 | 16.67° C | 81% | 1017.2 hPa | 0 mm | - | 278 W/m² | - |
| 1778239941 | 16.67° C | 80% | 1017 hPa | 0 mm | - | 318 W/m² | - |
| 1778239635 | 17.22° C | 77% | 1016.9 hPa | 0 mm | - | 573 W/m² | - |
| 1778239317 | 17.22° C | 80% | 1016.9 hPa | 0 mm | - | 700 W/m² | - |
| 1778239011 | 17.22° C | 80% | 1016.8 hPa | 0 mm | - | 665 W/m² | - |
| 1778238711 | 17.78° C | 80% | 1016.9 hPa | 0 mm | - | 769 W/m² | - |
| 1778238405 | 16.11° C | 81% | 1017 hPa | 0 mm | - | 774 W/m² | - |
| 1778238100 | 16.67° C | 83% | 1016.9 hPa | 0 mm | - | 331 W/m² | - |
| 1778237799 | 16.11° C | 83% | 1017.1 hPa | 0 mm | - | 592 W/m² | - |
| 1778237500 | 16.11° C | 85% | 1017 hPa | 0 mm | - | 295 W/m² | - |
| 1778237199 | 15.56° C | 85% | 1017.3 hPa | 0 mm | - | 419 W/m² | - |
| 1778236900 | 15.56° C | 83% | 1017.1 hPa | 0 mm | - | 714 W/m² | - |
| 1778236599 | 15.56° C | 80% | 1017 hPa | 0 mm | - | 316 W/m² | - |
| 1778236299 | 15° C | 82% | 1017.2 hPa | 0 mm | - | 555 W/m² | - |
| 1778235999 | 15.56° C | 82% | 1017.1 hPa | 0 mm | - | 350 W/m² | - |
| 1778235700 | 16.11° C | 80% | 1017.2 hPa | 0 mm | - | 687 W/m² | - |
| 1778235399 | 16.11° C | 78% | 1017 hPa | 0 mm | - | 758 W/m² | - |
| 1778235100 | 14.44° C | 81% | 1017 hPa | 0 mm | - | 792 W/m² | - |
| 1778234799 | 14.44° C | 81% | 1017.1 hPa | 0 mm | - | 269 W/m² | - |
* Rain latest hour (hover to see other rain measurements)
** Current wind speed in m/s (hover to see current wind gust speed)